Year,Month,Day,Hour,Minute,Value (Times are PST for temperature in C)
2018,08,10,00,00,19.40
2018,08,10,00,01,19.40
2018,08,10,00,02,19.40
2018,08,10,00,03,19.40
2018,08,10,00,04,19.40
2018,08,10,00,05,19.40
2018,08,10,00,06,19.30
2018,08,10,00,07,19.30
2018,08,10,00,08,19.30
2018,08,10,00,09,19.30
2018,08,10,00,10,19.30
2018,08,10,00,11,19.30
2018,08,10,00,12,19.30
2018,08,10,00,13,19.20
2018,08,10,00,14,19.20
2018,08,10,00,15,19.20
2018,08,10,00,16,19.20
2018,08,10,00,17,19.20
2018,08,10,00,18,19.20
2018,08,10,00,19,19.10
2018,08,10,00,20,19.10
2018,08,10,00,21,19.10
2018,08,10,00,22,19.10
2018,08,10,00,23,19.10
2018,08,10,00,24,19.00
2018,08,10,00,25,19.00
2018,08,10,00,26,19.00
2018,08,10,00,27,19.00
2018,08,10,00,28,18.90
2018,08,10,00,29,18.90
2018,08,10,00,30,18.90
2018,08,10,00,31,18.90
2018,08,10,00,32,18.80
2018,08,10,00,33,18.80
2018,08,10,00,34,18.80
2018,08,10,00,35,18.80
2018,08,10,00,36,18.80
2018,08,10,00,37,18.70
2018,08,10,00,38,18.70
2018,08,10,00,39,18.70
2018,08,10,00,40,18.70
2018,08,10,00,41,18.70
2018,08,10,00,42,18.60
2018,08,10,00,43,18.60
2018,08,10,00,44,18.60
2018,08,10,00,45,18.60
2018,08,10,00,46,18.50
2018,08,10,00,47,18.50
2018,08,10,00,48,18.50
2018,08,10,00,49,18.40
2018,08,10,00,50,18.40
2018,08,10,00,51,18.40
2018,08,10,00,52,18.40
2018,08,10,00,53,18.40
2018,08,10,00,54,18.40
2018,08,10,00,55,18.40
2018,08,10,00,56,18.30
2018,08,10,00,57,18.30
2018,08,10,00,58,18.30
2018,08,10,00,59,18.30
2018,08,10,01,00,18.30
2018,08,10,01,01,18.20
2018,08,10,01,02,18.20
2018,08,10,01,03,18.20
2018,08,10,01,04,18.20
2018,08,10,01,05,18.20
2018,08,10,01,06,18.10
2018,08,10,01,07,18.10
2018,08,10,01,08,18.10
2018,08,10,01,09,18.10
2018,08,10,01,10,18.10
2018,08,10,01,11,18.00
2018,08,10,01,12,18.00
2018,08,10,01,13,18.00
2018,08,10,01,14,18.00
2018,08,10,01,15,17.90
2018,08,10,01,16,17.90
2018,08,10,01,17,17.90
2018,08,10,01,18,17.90
2018,08,10,01,19,17.90
2018,08,10,01,20,17.90
2018,08,10,01,21,17.80
2018,08,10,01,22,17.80
2018,08,10,01,23,17.80
2018,08,10,01,24,17.80
2018,08,10,01,25,17.70
2018,08,10,01,26,17.70
2018,08,10,01,27,17.70
2018,08,10,01,28,17.60
2018,08,10,01,29,17.60
2018,08,10,01,30,17.60
2018,08,10,01,31,17.60
2018,08,10,01,32,17.50
2018,08,10,01,33,17.50
2018,08,10,01,34,17.40
2018,08,10,01,35,17.40
2018,08,10,01,36,17.40
2018,08,10,01,37,17.40
2018,08,10,01,38,17.30
2018,08,10,01,39,17.30
2018,08,10,01,40,17.30
2018,08,10,01,41,17.30
2018,08,10,01,42,17.30
2018,08,10,01,43,17.20
2018,08,10,01,44,17.20
2018,08,10,01,45,17.20
2018,08,10,01,46,17.20
2018,08,10,01,47,17.20
2018,08,10,01,48,17.10
2018,08,10,01,49,17.10
2018,08,10,01,50,17.10
2018,08,10,01,51,17.10
2018,08,10,01,52,17.10
2018,08,10,01,53,17.10
2018,08,10,01,54,17.10
2018,08,10,01,55,17.10
2018,08,10,01,56,17.10
2018,08,10,01,57,17.10
2018,08,10,01,58,17.00
2018,08,10,01,59,17.00
2018,08,10,02,00,17.00
2018,08,10,02,01,17.00
2018,08,10,02,02,17.00
2018,08,10,02,03,17.00
2018,08,10,02,04,17.00
2018,08,10,02,05,16.90
2018,08,10,02,06,16.90
2018,08,10,02,07,16.90
2018,08,10,02,08,16.90
2018,08,10,02,09,16.90
2018,08,10,02,10,16.90
2018,08,10,02,11,16.90
2018,08,10,02,12,16.90
2018,08,10,02,13,16.90
2018,08,10,02,14,16.80
2018,08,10,02,15,16.80
2018,08,10,02,16,16.80
2018,08,10,02,17,16.80
2018,08,10,02,18,16.80
2018,08,10,02,19,16.80
2018,08,10,02,20,16.80
2018,08,10,02,21,16.80
2018,08,10,02,22,16.80
2018,08,10,02,23,16.80
2018,08,10,02,24,16.80
2018,08,10,02,25,16.80
2018,08,10,02,26,16.70
2018,08,10,02,27,16.70
2018,08,10,02,28,16.70
2018,08,10,02,29,16.70
2018,08,10,02,30,16.70
2018,08,10,02,31,16.70
2018,08,10,02,32,16.70
2018,08,10,02,33,16.70
2018,08,10,02,34,16.70
2018,08,10,02,35,16.60
2018,08,10,02,36,16.60
2018,08,10,02,37,16.60
2018,08,10,02,38,16.50
2018,08,10,02,39,16.50
2018,08,10,02,40,16.50
2018,08,10,02,41,16.50
2018,08,10,02,42,16.40
2018,08,10,02,43,16.40
2018,08,10,02,44,16.40
2018,08,10,02,45,16.40
2018,08,10,02,46,16.40
2018,08,10,02,47,16.40
2018,08,10,02,48,16.50
2018,08,10,02,49,16.50
2018,08,10,02,50,16.50
2018,08,10,02,51,16.50
2018,08,10,02,52,16.50
2018,08,10,02,53,16.50
2018,08,10,02,54,16.50
2018,08,10,02,55,16.60
2018,08,10,02,56,16.60
2018,08,10,02,57,16.60
2018,08,10,02,58,16.60
2018,08,10,02,59,16.60
2018,08,10,03,00,16.60
2018,08,10,03,01,16.60
2018,08,10,03,02,16.60
2018,08,10,03,03,16.60
2018,08,10,03,04,16.60
2018,08,10,03,05,16.60
2018,08,10,03,06,16.60
2018,08,10,03,07,16.60
2018,08,10,03,08,16.60
2018,08,10,03,09,16.60
2018,08,10,03,10,16.50
2018,08,10,03,11,16.50
2018,08,10,03,12,16.50
2018,08,10,03,13,16.50
2018,08,10,03,14,16.50
2018,08,10,03,15,16.50
2018,08,10,03,16,16.50
2018,08,10,03,17,16.50
2018,08,10,03,18,16.50
2018,08,10,03,19,16.50
2018,08,10,03,20,16.50
2018,08,10,03,21,16.40
2018,08,10,03,22,16.40
2018,08,10,03,23,16.40
2018,08,10,03,24,16.40
2018,08,10,03,25,16.40
2018,08,10,03,26,16.40
2018,08,10,03,27,16.40
2018,08,10,03,28,16.40
2018,08,10,03,29,16.40
2018,08,10,03,30,16.40
2018,08,10,03,31,16.40
2018,08,10,03,32,16.40
2018,08,10,03,33,16.40
2018,08,10,03,34,16.40
2018,08,10,03,35,16.40
2018,08,10,03,36,16.40
2018,08,10,03,37,16.40
2018,08,10,03,38,16.30
2018,08,10,03,39,16.30
2018,08,10,03,40,16.30
2018,08,10,03,41,16.30
2018,08,10,03,42,16.20
2018,08,10,03,43,16.20
2018,08,10,03,44,16.20
2018,08,10,03,45,16.20
2018,08,10,03,46,16.20
2018,08,10,03,47,16.20
2018,08,10,03,48,16.20
2018,08,10,03,49,16.20
2018,08,10,03,50,16.10
2018,08,10,03,51,16.10
2018,08,10,03,52,16.10
2018,08,10,03,53,16.10
2018,08,10,03,54,16.10
2018,08,10,03,55,16.10
2018,08,10,03,56,16.10
2018,08,10,03,57,16.10
2018,08,10,03,58,16.10
2018,08,10,03,59,16.10
2018,08,10,04,00,16.10
2018,08,10,04,01,16.10
2018,08,10,04,02,16.10
2018,08,10,04,03,16.10
2018,08,10,04,04,16.00
2018,08,10,04,05,16.00
2018,08,10,04,06,16.00
2018,08,10,04,07,16.00
2018,08,10,04,08,16.00
2018,08,10,04,09,16.00
2018,08,10,04,10,16.00
2018,08,10,04,11,16.10
2018,08,10,04,12,16.10
2018,08,10,04,13,16.10
2018,08,10,04,14,16.10
2018,08,10,04,15,16.10
2018,08,10,04,16,16.10
2018,08,10,04,17,16.10
2018,08,10,04,18,16.10
2018,08,10,04,19,16.10
2018,08,10,04,20,16.10
2018,08,10,04,21,16.20
2018,08,10,04,22,16.10
2018,08,10,04,23,16.10
2018,08,10,04,24,16.10
2018,08,10,04,25,16.10
2018,08,10,04,26,16.00
2018,08,10,04,27,15.90
2018,08,10,04,28,15.90
2018,08,10,04,29,15.90
2018,08,10,04,30,15.80
2018,08,10,04,31,15.80
2018,08,10,04,32,15.80
2018,08,10,04,33,15.80
2018,08,10,04,34,15.70
2018,08,10,04,35,15.70
2018,08,10,04,36,15.70
2018,08,10,04,37,15.70
2018,08,10,04,38,15.70
2018,08,10,04,39,15.70
2018,08,10,04,40,15.70
2018,08,10,04,41,15.70
2018,08,10,04,42,15.70
2018,08,10,04,43,15.70
2018,08,10,04,44,15.70
2018,08,10,04,45,15.70
2018,08,10,04,46,15.70
2018,08,10,04,47,15.70
2018,08,10,04,48,15.70
2018,08,10,04,49,15.70
2018,08,10,04,50,15.70
2018,08,10,04,51,15.70
2018,08,10,04,52,15.70
2018,08,10,04,53,15.80
2018,08,10,04,54,15.80
2018,08,10,04,55,15.80
2018,08,10,04,56,15.80
2018,08,10,04,57,15.80
2018,08,10,04,58,15.80
2018,08,10,04,59,15.80
2018,08,10,05,00,15.80
2018,08,10,05,01,15.70
2018,08,10,05,02,15.70
2018,08,10,05,03,15.70
2018,08,10,05,04,15.70
2018,08,10,05,05,15.60
2018,08,10,05,06,15.60
2018,08,10,05,07,15.60
2018,08,10,05,08,15.50
2018,08,10,05,09,15.50
2018,08,10,05,10,15.50
2018,08,10,05,11,15.50
2018,08,10,05,12,15.40
2018,08,10,05,13,15.40
2018,08,10,05,14,15.40
2018,08,10,05,15,15.40
2018,08,10,05,16,15.40
2018,08,10,05,17,15.40
2018,08,10,05,18,15.40
2018,08,10,05,19,15.40
2018,08,10,05,20,15.40
2018,08,10,05,21,15.40
2018,08,10,05,22,15.40
2018,08,10,05,23,15.40
2018,08,10,05,24,15.40
2018,08,10,05,25,15.30
2018,08,10,05,26,15.30
2018,08,10,05,27,15.30
2018,08,10,05,28,15.30
2018,08,10,05,29,15.20
2018,08,10,05,30,15.20
2018,08,10,05,31,15.20
2018,08,10,05,32,15.20
2018,08,10,05,33,15.10
2018,08,10,05,34,15.10
2018,08,10,05,35,15.10
2018,08,10,05,36,15.10
2018,08,10,05,37,15.00
2018,08,10,05,38,15.00
2018,08,10,05,39,14.90
2018,08,10,05,40,14.80
2018,08,10,05,41,14.80
2018,08,10,05,42,14.80
2018,08,10,05,43,14.70
2018,08,10,05,44,14.60
2018,08,10,05,45,14.60
2018,08,10,05,46,14.60
2018,08,10,05,47,14.50
2018,08,10,05,48,14.50
2018,08,10,05,49,14.50
2018,08,10,05,50,14.50
2018,08,10,05,51,14.50
2018,08,10,05,52,14.50
2018,08,10,05,53,14.50
2018,08,10,05,54,14.50
2018,08,10,05,55,14.50
2018,08,10,05,56,14.60
2018,08,10,05,57,14.60
2018,08,10,05,58,14.60
2018,08,10,05,59,14.60
2018,08,10,06,00,14.60
2018,08,10,06,01,14.60
2018,08,10,06,02,14.60
2018,08,10,06,03,14.60
2018,08,10,06,04,14.60
2018,08,10,06,05,14.60
2018,08,10,06,06,14.60
2018,08,10,06,07,14.60
2018,08,10,06,08,14.60
2018,08,10,06,09,14.50
2018,08,10,06,10,14.60
2018,08,10,06,11,14.50
2018,08,10,06,12,14.50
2018,08,10,06,13,14.50
2018,08,10,06,14,14.50
2018,08,10,06,15,14.50
2018,08,10,06,16,14.50
2018,08,10,06,17,14.50
2018,08,10,06,18,14.40
2018,08,10,06,19,14.40
2018,08,10,06,20,14.40
2018,08,10,06,21,14.40
2018,08,10,06,22,14.30
2018,08,10,06,23,14.30
2018,08,10,06,24,14.30
2018,08,10,06,25,14.30
2018,08,10,06,26,14.30
2018,08,10,06,27,14.30
2018,08,10,06,28,14.30
2018,08,10,06,29,14.40
2018,08,10,06,30,14.40
2018,08,10,06,31,14.40
2018,08,10,06,32,14.40
2018,08,10,06,33,14.40
2018,08,10,06,34,14.40
2018,08,10,06,35,14.50
2018,08,10,06,36,14.50
2018,08,10,06,37,14.60
2018,08,10,06,38,14.60
2018,08,10,06,39,14.60
2018,08,10,06,40,14.70
2018,08,10,06,41,14.70
2018,08,10,06,42,14.70
2018,08,10,06,43,14.70
2018,08,10,06,44,14.70
2018,08,10,06,45,14.70
2018,08,10,06,46,14.80
2018,08,10,06,47,14.80
2018,08,10,06,48,14.80
2018,08,10,06,49,14.80
2018,08,10,06,50,14.80
2018,08,10,06,51,14.80
2018,08,10,06,52,14.80
2018,08,10,06,53,14.90
2018,08,10,06,54,14.90
2018,08,10,06,55,14.90
2018,08,10,06,56,14.90
2018,08,10,06,57,15.00
2018,08,10,06,58,15.00
2018,08,10,06,59,15.00
2018,08,10,07,00,15.00
2018,08,10,07,01,15.00
2018,08,10,07,02,15.00
2018,08,10,07,03,15.10
2018,08,10,07,04,15.10
2018,08,10,07,05,15.10
2018,08,10,07,06,15.10
2018,08,10,07,07,15.10
2018,08,10,07,08,15.10
2018,08,10,07,09,15.20
2018,08,10,07,10,15.20
2018,08,10,07,11,15.20
2018,08,10,07,12,15.20
2018,08,10,07,13,15.30
2018,08,10,07,14,15.30
2018,08,10,07,15,15.30
2018,08,10,07,16,15.40
2018,08,10,07,17,15.40
2018,08,10,07,18,15.50
2018,08,10,07,19,15.50
2018,08,10,07,20,15.60
2018,08,10,07,21,15.60
2018,08,10,07,22,15.70
2018,08,10,07,23,15.70
2018,08,10,07,24,15.70
2018,08,10,07,25,15.80
2018,08,10,07,26,15.80
2018,08,10,07,27,15.80
2018,08,10,07,28,15.90
2018,08,10,07,29,15.90
2018,08,10,07,30,16.00
2018,08,10,07,31,16.10
2018,08,10,07,32,16.10
2018,08,10,07,33,16.20
2018,08,10,07,34,16.20
2018,08,10,07,35,16.20
2018,08,10,07,36,16.30
2018,08,10,07,37,16.40
2018,08,10,07,38,16.50
2018,08,10,07,39,16.60
2018,08,10,07,40,16.60
2018,08,10,07,41,16.70
2018,08,10,07,42,16.70
2018,08,10,07,43,16.80
2018,08,10,07,44,16.80
2018,08,10,07,45,16.80
2018,08,10,07,46,16.90
2018,08,10,07,47,17.00
2018,08,10,07,48,17.00
2018,08,10,07,49,17.10
2018,08,10,07,50,17.10
2018,08,10,07,51,17.10
2018,08,10,07,52,17.20
2018,08,10,07,53,17.30
2018,08,10,07,54,17.40
2018,08,10,07,55,17.40
2018,08,10,07,56,17.50
2018,08,10,07,57,17.60
2018,08,10,07,58,17.70
2018,08,10,07,59,17.80
2018,08,10,08,00,17.90
2018,08,10,08,01,18.00
2018,08,10,08,02,18.10
2018,08,10,08,03,18.20
2018,08,10,08,04,18.30
2018,08,10,08,05,18.40
2018,08,10,08,06,18.50
2018,08,10,08,07,18.60
2018,08,10,08,08,18.70
2018,08,10,08,09,18.80
2018,08,10,08,10,18.90
2018,08,10,08,11,19.00
2018,08,10,08,12,19.10
2018,08,10,08,13,19.20
2018,08,10,08,14,19.30
2018,08,10,08,15,19.40
2018,08,10,08,16,19.50
2018,08,10,08,17,19.60
2018,08,10,08,18,19.60
2018,08,10,08,19,19.60
2018,08,10,08,20,19.70
2018,08,10,08,21,19.70
2018,08,10,08,22,19.80
2018,08,10,08,23,19.80
2018,08,10,08,24,19.80
2018,08,10,08,25,19.90
2018,08,10,08,26,19.90
2018,08,10,08,27,19.90
2018,08,10,08,28,19.90
2018,08,10,08,29,20.00
2018,08,10,08,30,20.00
2018,08,10,08,31,20.10
2018,08,10,08,32,20.10
2018,08,10,08,33,20.20
2018,08,10,08,34,20.20
2018,08,10,08,35,20.30
2018,08,10,08,36,20.40
2018,08,10,08,37,20.50
2018,08,10,08,38,20.60
2018,08,10,08,39,20.70
2018,08,10,08,40,20.80
2018,08,10,08,41,20.90
2018,08,10,08,42,21.00
2018,08,10,08,43,21.10
2018,08,10,08,44,21.30
2018,08,10,08,45,21.40
2018,08,10,08,46,21.50
2018,08,10,08,47,21.60
2018,08,10,08,48,21.70
2018,08,10,08,49,21.70
2018,08,10,08,50,21.80
2018,08,10,08,51,21.90
2018,08,10,08,52,21.90
2018,08,10,08,53,22.00
2018,08,10,08,54,22.00
2018,08,10,08,55,22.10
2018,08,10,08,56,22.10
2018,08,10,08,57,22.20
2018,08,10,08,58,22.20
2018,08,10,08,59,22.20
2018,08,10,09,00,22.30
2018,08,10,09,01,22.30
2018,08,10,09,02,22.40
2018,08,10,09,03,22.40
2018,08,10,09,04,22.40
2018,08,10,09,05,22.50
2018,08,10,09,06,22.50
2018,08,10,09,07,22.60
2018,08,10,09,08,22.60
2018,08,10,09,09,22.70
2018,08,10,09,10,22.70
2018,08,10,09,11,22.70
2018,08,10,09,12,22.80
2018,08,10,09,13,22.80
2018,08,10,09,14,22.80
2018,08,10,09,15,22.80
2018,08,10,09,16,22.90
2018,08,10,09,17,22.90
2018,08,10,09,18,23.00
2018,08,10,09,19,23.00
2018,08,10,09,20,23.00
2018,08,10,09,21,23.10
2018,08,10,09,22,23.10
2018,08,10,09,23,23.10
2018,08,10,09,24,23.20
2018,08,10,09,25,23.20
2018,08,10,09,26,23.30
2018,08,10,09,27,23.30
2018,08,10,09,28,23.30
2018,08,10,09,29,23.30
2018,08,10,09,30,23.40
2018,08,10,09,31,23.40
2018,08,10,09,32,23.40
2018,08,10,09,33,23.40
2018,08,10,09,34,23.50
2018,08,10,09,35,23.50
2018,08,10,09,36,23.60
2018,08,10,09,37,23.60
2018,08,10,09,38,23.50
2018,08,10,09,39,23.50
2018,08,10,09,40,23.50
2018,08,10,09,41,23.40
2018,08,10,09,42,23.40
2018,08,10,09,43,23.40
2018,08,10,09,44,23.40
2018,08,10,09,45,23.30
2018,08,10,09,46,23.30
2018,08,10,09,47,23.30
2018,08,10,09,48,23.40
2018,08,10,09,49,23.40
2018,08,10,09,50,23.40
2018,08,10,09,51,23.40
2018,08,10,09,52,23.50
2018,08,10,09,53,23.50
2018,08,10,09,54,23.50
2018,08,10,09,55,23.50
2018,08,10,09,56,23.60
2018,08,10,09,57,23.60
2018,08,10,09,58,23.60
2018,08,10,09,59,23.60
2018,08,10,10,00,23.60
2018,08,10,10,01,23.60
2018,08,10,10,02,23.70
2018,08,10,10,03,23.70
2018,08,10,10,04,23.70
2018,08,10,10,05,23.70
2018,08,10,10,06,23.80
2018,08,10,10,07,23.80
2018,08,10,10,08,23.80
2018,08,10,10,09,23.80
2018,08,10,10,10,23.80
2018,08,10,10,11,23.90
2018,08,10,10,12,23.90
2018,08,10,10,13,23.90
2018,08,10,10,14,23.90
2018,08,10,10,15,23.90
2018,08,10,10,16,23.90
2018,08,10,10,17,23.90
2018,08,10,10,18,23.90
2018,08,10,10,19,23.90
2018,08,10,10,20,23.90
2018,08,10,10,21,23.90
2018,08,10,10,22,23.90
2018,08,10,10,23,23.90
2018,08,10,10,24,23.90
2018,08,10,10,25,23.90
2018,08,10,10,26,24.00
2018,08,10,10,27,24.00
2018,08,10,10,28,24.00
2018,08,10,10,29,24.00
2018,08,10,10,30,24.00
2018,08,10,10,31,24.00
2018,08,10,10,32,24.00
2018,08,10,10,33,24.00
2018,08,10,10,34,24.10
2018,08,10,10,35,24.10
2018,08,10,10,36,24.10
2018,08,10,10,37,24.20
2018,08,10,10,38,24.20
2018,08,10,10,39,24.20
2018,08,10,10,40,24.20
2018,08,10,10,41,24.10
2018,08,10,10,42,24.10
2018,08,10,10,43,24.10
2018,08,10,10,44,24.20
2018,08,10,10,45,24.20
2018,08,10,10,46,24.30
2018,08,10,10,47,24.30
2018,08,10,10,48,24.30
2018,08,10,10,49,24.30
2018,08,10,10,50,24.20
2018,08,10,10,51,24.20
2018,08,10,10,52,24.30
2018,08,10,10,53,24.30
2018,08,10,10,54,24.30
2018,08,10,10,55,24.30
2018,08,10,10,56,24.30
2018,08,10,10,57,24.30
2018,08,10,10,58,24.30
2018,08,10,10,59,24.30
2018,08,10,11,00,24.40
2018,08,10,11,01,24.30
2018,08,10,11,02,24.30
2018,08,10,11,03,24.30
2018,08,10,11,04,24.30
2018,08,10,11,05,24.30
2018,08,10,11,06,24.40
2018,08,10,11,07,24.50
2018,08,10,11,08,24.50
2018,08,10,11,09,24.50
2018,08,10,11,10,24.60
2018,08,10,11,11,24.60
2018,08,10,11,12,24.70
2018,08,10,11,13,24.70
2018,08,10,11,14,24.80
2018,08,10,11,15,24.80
2018,08,10,11,16,24.80
2018,08,10,11,17,24.80
2018,08,10,11,18,24.70
2018,08,10,11,19,24.70
2018,08,10,11,20,24.70
2018,08,10,11,21,24.70
2018,08,10,11,22,24.70
2018,08,10,11,23,24.70
2018,08,10,11,24,24.70
2018,08,10,11,25,24.70
2018,08,10,11,26,24.60
2018,08,10,11,27,24.60
2018,08,10,11,28,24.60
2018,08,10,11,29,24.60
2018,08,10,11,30,24.70
2018,08,10,11,31,24.70
2018,08,10,11,32,24.70
2018,08,10,11,33,24.70
2018,08,10,11,34,24.70
2018,08,10,11,35,24.60
2018,08,10,11,36,24.60
2018,08,10,11,37,24.60
2018,08,10,11,38,24.60
2018,08,10,11,39,24.60
2018,08,10,11,40,24.60
2018,08,10,11,41,24.60
2018,08,10,11,42,24.60
2018,08,10,11,43,24.60
2018,08,10,11,44,24.60
2018,08,10,11,45,24.60
2018,08,10,11,46,24.60
2018,08,10,11,47,24.60
2018,08,10,11,48,24.60
2018,08,10,11,49,24.60
2018,08,10,11,50,24.60
2018,08,10,11,51,24.60
2018,08,10,11,52,24.60
2018,08,10,11,53,24.50
2018,08,10,11,54,24.50
2018,08,10,11,55,24.50
2018,08,10,11,56,24.50
2018,08,10,11,57,24.40
2018,08,10,11,58,24.50
2018,08,10,11,59,24.50
2018,08,10,12,00,24.50
2018,08,10,12,01,24.60
2018,08,10,12,02,24.60
2018,08,10,12,03,24.60
2018,08,10,12,04,24.60
2018,08,10,12,05,24.60
2018,08,10,12,06,24.60
2018,08,10,12,07,24.70
2018,08,10,12,08,24.70
2018,08,10,12,09,24.80
2018,08,10,12,10,24.90
2018,08,10,12,11,25.00
2018,08,10,12,12,25.10
2018,08,10,12,13,25.10
2018,08,10,12,14,25.20
2018,08,10,12,15,25.20
2018,08,10,12,16,25.30
2018,08,10,12,17,25.30
2018,08,10,12,18,25.40
2018,08,10,12,19,25.40
2018,08,10,12,20,25.50
2018,08,10,12,21,25.50
2018,08,10,12,22,25.50
2018,08,10,12,23,25.40
2018,08,10,12,24,25.40
2018,08,10,12,25,25.40
2018,08,10,12,26,25.40
2018,08,10,12,27,25.50
2018,08,10,12,28,25.50
2018,08,10,12,29,25.60
2018,08,10,12,30,25.60
2018,08,10,12,31,25.50
2018,08,10,12,32,25.50
2018,08,10,12,33,25.50
2018,08,10,12,34,25.50
2018,08,10,12,35,25.50
2018,08,10,12,36,25.40
2018,08,10,12,37,25.40
2018,08,10,12,38,25.40
2018,08,10,12,39,25.40
2018,08,10,12,40,25.40
2018,08,10,12,41,25.40
2018,08,10,12,42,25.40
2018,08,10,12,43,25.40
2018,08,10,12,44,25.40
2018,08,10,12,45,25.40
2018,08,10,12,46,25.40
2018,08,10,12,47,25.40
2018,08,10,12,48,25.50
2018,08,10,12,49,25.50
2018,08,10,12,50,25.60
2018,08,10,12,51,25.60
2018,08,10,12,52,25.70
2018,08,10,12,53,25.80
2018,08,10,12,54,25.80
2018,08,10,12,55,25.90
2018,08,10,12,56,26.00
2018,08,10,12,57,26.00
2018,08,10,12,58,26.10
2018,08,10,12,59,26.30
2018,08,10,13,00,26.40
2018,08,10,13,01,26.50
2018,08,10,13,02,26.60
2018,08,10,13,03,26.70
2018,08,10,13,04,26.70
2018,08,10,13,05,26.60
2018,08,10,13,06,26.60
2018,08,10,13,07,26.60
2018,08,10,13,08,26.60
2018,08,10,13,09,26.60
2018,08,10,13,10,26.70
2018,08,10,13,11,26.70
2018,08,10,13,12,26.80
2018,08,10,13,13,26.80
2018,08,10,13,14,26.80
2018,08,10,13,15,26.80
2018,08,10,13,16,26.90
2018,08,10,13,17,26.90
2018,08,10,13,18,27.00
2018,08,10,13,19,27.00
2018,08,10,13,20,27.10
2018,08,10,13,21,27.20
2018,08,10,13,22,27.30
2018,08,10,13,23,27.30
2018,08,10,13,24,27.40
2018,08,10,13,25,27.60
2018,08,10,13,26,27.60
2018,08,10,13,27,27.70
2018,08,10,13,28,27.80
2018,08,10,13,29,27.90
2018,08,10,13,30,27.90
2018,08,10,13,31,27.90
2018,08,10,13,32,27.90
2018,08,10,13,33,27.90
2018,08,10,13,34,28.00
2018,08,10,13,35,28.00
2018,08,10,13,36,28.00
2018,08,10,13,37,28.00
2018,08,10,13,38,28.00
2018,08,10,13,39,28.00
2018,08,10,13,40,28.00
2018,08,10,13,41,27.90
2018,08,10,13,42,27.80
2018,08,10,13,43,27.80
2018,08,10,13,44,27.80
2018,08,10,13,45,27.90
2018,08,10,13,46,27.90
2018,08,10,13,47,27.90
2018,08,10,13,48,28.00
2018,08,10,13,49,28.00
2018,08,10,13,50,28.10
2018,08,10,13,51,28.20
2018,08,10,13,52,28.30
2018,08,10,13,53,28.30
2018,08,10,13,54,28.30
2018,08,10,13,55,28.20
2018,08,10,13,56,28.20
2018,08,10,13,57,28.20
2018,08,10,13,58,28.20
2018,08,10,13,59,28.20
2018,08,10,14,00,28.30
2018,08,10,14,01,28.30
2018,08,10,14,02,28.30
2018,08,10,14,03,28.20
2018,08,10,14,04,28.10
2018,08,10,14,05,28.10
2018,08,10,14,06,28.10
2018,08,10,14,07,28.20
2018,08,10,14,08,28.20
2018,08,10,14,09,28.20
2018,08,10,14,10,28.20
2018,08,10,14,11,28.20
2018,08,10,14,12,28.20
2018,08,10,14,13,28.10
2018,08,10,14,14,28.10
2018,08,10,14,15,28.10
2018,08,10,14,16,28.00
2018,08,10,14,17,28.00
2018,08,10,14,18,28.10
2018,08,10,14,19,28.10
2018,08,10,14,20,28.10
2018,08,10,14,21,28.20
2018,08,10,14,22,28.20
2018,08,10,14,23,28.20
2018,08,10,14,24,28.20
2018,08,10,14,25,28.20
2018,08,10,14,26,28.10
2018,08,10,14,27,28.10
2018,08,10,14,28,28.10
2018,08,10,14,29,28.10
2018,08,10,14,30,28.10
2018,08,10,14,31,28.20
2018,08,10,14,32,28.20
2018,08,10,14,33,28.20
2018,08,10,14,34,28.20
2018,08,10,14,35,28.20
2018,08,10,14,36,28.20
2018,08,10,14,37,28.20
2018,08,10,14,38,28.30
2018,08,10,14,39,28.30
2018,08,10,14,40,28.40
2018,08,10,14,41,28.50
2018,08,10,14,42,28.60
2018,08,10,14,43,28.60
2018,08,10,14,44,28.70
2018,08,10,14,45,28.80
2018,08,10,14,46,28.80
2018,08,10,14,47,29.00
2018,08,10,14,48,29.00
2018,08,10,14,49,29.10
2018,08,10,14,50,29.20
2018,08,10,14,51,29.20
2018,08,10,14,52,29.30
2018,08,10,14,53,29.30
2018,08,10,14,54,29.40
2018,08,10,14,55,29.40
2018,08,10,14,56,29.50
2018,08,10,14,57,29.50
2018,08,10,14,58,29.60
2018,08,10,14,59,29.50
2018,08,10,15,00,29.40
2018,08,10,15,01,29.40
2018,08,10,15,02,29.30
2018,08,10,15,03,29.30
2018,08,10,15,04,29.30
2018,08,10,15,05,29.30
2018,08,10,15,06,29.30
2018,08,10,15,07,29.40
2018,08,10,15,08,29.40
2018,08,10,15,09,29.50
2018,08,10,15,10,29.50
2018,08,10,15,11,29.60
2018,08,10,15,12,29.60
2018,08,10,15,13,29.60
2018,08,10,15,14,29.60
2018,08,10,15,15,29.70
2018,08,10,15,16,29.80
2018,08,10,15,17,29.90
2018,08,10,15,18,29.90
2018,08,10,15,19,29.90
2018,08,10,15,20,29.90
2018,08,10,15,21,29.90
2018,08,10,15,22,29.90
2018,08,10,15,23,29.90
2018,08,10,15,24,29.90
2018,08,10,15,25,29.90
2018,08,10,15,26,29.90
2018,08,10,15,27,29.90
2018,08,10,15,28,30.00
2018,08,10,15,29,30.00
2018,08,10,15,30,30.00
2018,08,10,15,31,30.00
2018,08,10,15,32,30.00
2018,08,10,15,33,30.00
2018,08,10,15,34,29.90
2018,08,10,15,35,29.70
2018,08,10,15,36,29.60
2018,08,10,15,37,29.50
2018,08,10,15,38,29.50
2018,08,10,15,39,29.60
2018,08,10,15,40,29.60
2018,08,10,15,41,29.70
2018,08,10,15,42,29.70
2018,08,10,15,43,29.80
2018,08,10,15,44,29.80
2018,08,10,15,45,29.80
2018,08,10,15,46,29.90
2018,08,10,15,47,29.90
2018,08,10,15,48,29.80
2018,08,10,15,49,29.70
2018,08,10,15,50,29.70
2018,08,10,15,51,29.60
2018,08,10,15,52,29.60
2018,08,10,15,53,29.50
2018,08,10,15,54,29.50
2018,08,10,15,55,29.50
2018,08,10,15,56,29.40
2018,08,10,15,57,29.30
2018,08,10,15,58,29.30
2018,08,10,15,59,29.30
2018,08,10,16,00,29.30
2018,08,10,16,01,29.30
2018,08,10,16,02,29.30
2018,08,10,16,03,29.30
2018,08,10,16,04,29.30
2018,08,10,16,05,29.30
2018,08,10,16,06,29.30
2018,08,10,16,07,29.30
2018,08,10,16,08,29.40
2018,08,10,16,09,29.30
2018,08,10,16,10,29.30
2018,08,10,16,11,29.30
2018,08,10,16,12,29.30
2018,08,10,16,13,29.30
2018,08,10,16,14,29.20
2018,08,10,16,15,29.20
2018,08,10,16,16,29.10
2018,08,10,16,17,29.10
2018,08,10,16,18,29.10
2018,08,10,16,19,29.00
2018,08,10,16,20,28.90
2018,08,10,16,21,28.90
2018,08,10,16,22,28.80
2018,08,10,16,23,28.80
2018,08,10,16,24,28.70
2018,08,10,16,25,28.70
2018,08,10,16,26,28.70
2018,08,10,16,27,28.70
2018,08,10,16,28,28.60
2018,08,10,16,29,28.60
2018,08,10,16,30,28.50
2018,08,10,16,31,28.40
2018,08,10,16,32,28.30
2018,08,10,16,33,28.20
2018,08,10,16,34,28.10
2018,08,10,16,35,28.00
2018,08,10,16,36,27.90
2018,08,10,16,37,27.90
2018,08,10,16,38,27.80
2018,08,10,16,39,27.70
2018,08,10,16,40,27.60
2018,08,10,16,41,27.60
2018,08,10,16,42,27.50
2018,08,10,16,43,27.50
2018,08,10,16,44,27.50
2018,08,10,16,45,27.40
2018,08,10,16,46,27.40
2018,08,10,16,47,27.40
2018,08,10,16,48,27.30
2018,08,10,16,49,27.30
2018,08,10,16,50,27.30
2018,08,10,16,51,27.30
2018,08,10,16,52,27.30
2018,08,10,16,53,27.20
2018,08,10,16,54,27.20
2018,08,10,16,55,27.20
2018,08,10,16,56,27.10
2018,08,10,16,57,27.10
2018,08,10,16,58,27.00
2018,08,10,16,59,26.90
2018,08,10,17,00,26.90
2018,08,10,17,01,26.80
2018,08,10,17,02,26.80
2018,08,10,17,03,26.80
2018,08,10,17,04,26.70
2018,08,10,17,05,26.70
2018,08,10,17,06,26.70
2018,08,10,17,07,26.60
2018,08,10,17,08,26.60
2018,08,10,17,09,26.50
2018,08,10,17,10,26.40
2018,08,10,17,11,26.40
2018,08,10,17,12,26.40
2018,08,10,17,13,26.30
2018,08,10,17,14,26.30
2018,08,10,17,15,26.20
2018,08,10,17,16,26.20
2018,08,10,17,17,26.10
2018,08,10,17,18,26.10
2018,08,10,17,19,26.10